Change the Weather History Date:

Saturday, October 26, 2013

  Actual Average Record
Temperature  
Mean Temperature 39 °F -  
Max Temperature 48 °F 57 °F 80 °F (1955)
Min Temperature 30 °F 36 °F 21 °F (1997)
Degree Days  
Heating Degree Days 26    
Moisture  
Dew Point 27 °F    
Average Humidity 57    
Maximum Humidity 75    
Minimum Humidity 40    
Precipitation  
Precipitation 0.00 in - - ()
Sea Level Pressure  
Sea Level Pressure 30.07 in    
Wind  
Wind Speed 15 mph (WNW)    
Max Wind Speed 26 mph    
Max Gust Speed 31 mph    
Visibility 10 miles    
Events      
Averages and records for this station are not official NWS values.
T = Trace of Precipitation, MM = Missing Value Source: NWS Daily Summary

Daily Weather History Graph

Daily Weather History Graph

Search for Another Location

Airport or City:

Trip Planner

Search our weather history database for the weather conditions in past years. The results will help you decide how hot, cold, wet, or windy it might be!

Date:

Astronomy

Oct. 26, 2013 Rise Set
Actual Time 7:46 AM CDT 6:16 PM CDT
Civil Twilight 7:16 AM CDT 6:45 PM CDT
Nautical Twilight 6:42 AM CDT 7:19 PM CDT
Astronomical Twilight 6:09 AM CDT 7:52 PM CDT
Moon No Moon Rise 2:04 PM CDT (10/26)
Length of Visible Light 11h 29m
Length of Day
10h 30m
Waning Gibbous, 53% of the Moon is Illuminated
Oct 26
Waning Gibbous
Oct 26
Last Quarter
Nov 3
New
Nov 9
First Quarter
Nov 17
Full

Hourly Weather History & Observations

Time (CDT) Temp. Windchill Dew Point Humidity Pressure Visibility Wind Dir Wind Speed Gust Speed Precip Events Conditions
12:15 AM 48.2 °F - 33.8 °F 58% 29.90 in 10.0 mi WSW 15.0 mph 20.7 mph N/A   Clear
12:35 AM 48.2 °F - 33.8 °F 58% 29.89 in 10.0 mi WSW 17.3 mph 21.9 mph N/A   Clear
12:55 AM 48.2 °F - 33.8 °F 58% 29.89 in 10.0 mi West 16.1 mph - N/A   Clear
1:15 AM 46.4 °F 39.8 °F 33.8 °F 62% 29.90 in 10.0 mi West 16.1 mph - N/A   Clear
1:35 AM 46.4 °F 40.1 °F 33.8 °F 62% 29.90 in 10.0 mi West 15.0 mph - N/A   Clear
1:55 AM 46.4 °F 39.8 °F 35.6 °F 66% 29.90 in 10.0 mi WNW 16.1 mph - N/A   Clear
2:15 AM 46.4 °F 40.1 °F 33.8 °F 62% 29.91 in 10.0 mi NW 15.0 mph 19.6 mph N/A   Clear
2:35 AM 46.4 °F 39.8 °F 33.8 °F 62% 29.92 in 10.0 mi NW 16.1 mph - N/A   Clear
2:55 AM 46.4 °F 39.8 °F 32.0 °F 57% 29.93 in 10.0 mi NW 16.1 mph 20.7 mph N/A   Clear
3:15 AM 46.4 °F 39.5 °F 30.2 °F 53% 29.93 in 10.0 mi NW 17.3 mph 23.0 mph N/A   Clear
3:35 AM 44.6 °F 37.2 °F 30.2 °F 57% 29.94 in 10.0 mi NW 17.3 mph - N/A   Clear
3:55 AM 44.6 °F 36.9 °F 30.2 °F 57% 29.94 in 10.0 mi NW 18.4 mph 24.2 mph N/A   Clear
4:15 AM 42.8 °F 34.5 °F 30.2 °F 61% 29.95 in 10.0 mi NW 18.4 mph - N/A   Clear
4:35 AM 42.8 °F 35.1 °F 30.2 °F 61% 29.96 in 10.0 mi NW 16.1 mph - N/A   Clear
4:55 AM 41.0 °F 33.5 °F 28.4 °F 61% 29.97 in 10.0 mi NW 13.8 mph - N/A   Clear
5:15 AM 39.2 °F 31.2 °F 28.4 °F 65% 29.99 in 10.0 mi NW 13.8 mph - N/A   Clear
5:35 AM 39.2 °F 30.8 °F 28.4 °F 65% 30.00 in 10.0 mi NW 15.0 mph 19.6 mph N/A   Clear
5:55 AM 39.2 °F 29.8 °F 26.6 °F 61% 30.01 in 10.0 mi NW 18.4 mph - N/A   Clear
6:15 AM 37.4 °F 28.2 °F 26.6 °F 65% 30.02 in 10.0 mi WNW 16.1 mph 24.2 mph N/A   Clear
6:35 AM 37.4 °F 28.2 °F 26.6 °F 65% 30.03 in 10.0 mi NW 16.1 mph 23.0 mph N/A   Clear
6:55 AM 35.6 °F 25.5 °F 26.6 °F 70% 30.04 in 10.0 mi NW 17.3 mph 25.3 mph N/A   Clear
7:15 AM 35.6 °F 25.5 °F 26.6 °F 70% 30.05 in 10.0 mi NW 17.3 mph - N/A   Clear
7:35 AM 35.6 °F 25.5 °F 26.6 °F 70% 30.06 in 10.0 mi NW 17.3 mph - N/A   Clear
7:55 AM 35.6 °F 25.9 °F 26.6 °F 70% 30.06 in 10.0 mi NW 16.1 mph - N/A   Clear
8:15 AM 37.4 °F 27.5 °F 26.6 °F 65% 30.07 in 10.0 mi WNW 18.4 mph - N/A   Clear
8:35 AM 37.4 °F 28.2 °F 26.6 °F 65% 30.08 in 10.0 mi WNW 16.1 mph - N/A   Clear
8:55 AM 37.4 °F 27.5 °F 26.6 °F 65% 30.09 in 10.0 mi WNW 18.4 mph 23.0 mph N/A   Clear
9:15 AM 37.4 °F 28.2 °F 26.6 °F 65% 30.10 in 10.0 mi WNW 16.1 mph 19.6 mph N/A   Clear
9:35 AM 39.2 °F 29.3 °F 26.6 °F 61% 30.10 in 10.0 mi WNW 20.7 mph 25.3 mph N/A   Clear
9:55 AM 39.2 °F 29.6 °F 26.6 °F 61% 30.11 in 10.0 mi WNW 19.6 mph 27.6 mph N/A   Clear
10:15 AM 42.8 °F 34.3 °F 26.6 °F 53% 30.11 in 10.0 mi NW 19.6 mph 27.6 mph N/A   Clear
10:35 AM 42.8 °F 34.0 °F 26.6 °F 53% 30.11 in 10.0 mi NW 20.7 mph 29.9 mph N/A   Clear
10:55 AM 42.8 °F 34.0 °F 26.6 °F 53% 30.12 in 10.0 mi NW 20.7 mph 31.1 mph N/A   Clear
11:15 AM 42.8 °F 33.1 °F 26.6 °F 53% 30.12 in 10.0 mi NW 25.3 mph - N/A   Clear
11:35 AM 42.8 °F 34.3 °F 26.6 °F 53% 30.13 in 10.0 mi NW 19.6 mph 25.3 mph N/A   Clear
11:55 AM 44.6 °F 35.3 °F 26.6 °F 49% 30.14 in - NW 26.5 mph 31.1 mph N/A   Unknown
12:15 PM 44.6 °F 36.6 °F 26.6 °F 49% 30.14 in 10.0 mi NW 19.6 mph 28.8 mph N/A   Clear
12:35 PM 44.6 °F 36.9 °F 24.8 °F 46% 30.14 in 10.0 mi NW 18.4 mph 25.3 mph N/A   Clear
12:55 PM 46.4 °F 39.5 °F 24.8 °F 43% 30.14 in 10.0 mi NW 17.3 mph 25.3 mph N/A   Clear
1:15 PM 46.4 °F 39.0 °F 24.8 °F 43% 30.14 in 10.0 mi NW 19.6 mph 26.5 mph N/A   Clear
1:35 PM 46.4 °F 38.5 °F 24.8 °F 43% 30.13 in 10.0 mi NW 21.9 mph 27.6 mph N/A   Clear
1:55 PM 46.4 °F 39.2 °F 24.8 °F 43% 30.13 in 10.0 mi NW 18.4 mph - N/A   Clear
2:15 PM 48.2 °F - 24.8 °F 40% 30.13 in 10.0 mi NW 19.6 mph 24.2 mph N/A   Clear
2:35 PM 48.2 °F - 24.8 °F 40% 30.13 in 10.0 mi NW 18.4 mph 24.2 mph N/A   Clear
2:55 PM 48.2 °F - 24.8 °F 40% 30.13 in 10.0 mi NW 17.3 mph 25.3 mph N/A   Clear
3:15 PM 48.2 °F - 24.8 °F 40% 30.12 in 10.0 mi NW 17.3 mph 23.0 mph N/A   Clear
3:35 PM 48.2 °F - 24.8 °F 40% 30.13 in 10.0 mi NW 18.4 mph 21.9 mph N/A   Clear
3:55 PM 48.2 °F - 24.8 °F 40% 30.13 in 10.0 mi NW 17.3 mph 20.7 mph N/A   Clear
4:15 PM 46.4 °F 39.2 °F 24.8 °F 43% 30.13 in 10.0 mi NW 18.4 mph 23.0 mph N/A   Clear
4:35 PM 46.4 °F 39.5 °F 24.8 °F 43% 30.13 in 10.0 mi NW 17.3 mph 20.7 mph N/A   Clear
4:55 PM 46.4 °F 39.8 °F 24.8 °F 43% 30.13 in 10.0 mi NW 16.1 mph 24.2 mph N/A   Clear
5:15 PM 46.4 °F 39.5 °F 24.8 °F 43% 30.13 in 10.0 mi NW 17.3 mph 23.0 mph N/A   Clear
5:35 PM 44.6 °F 38.1 °F 24.8 °F 46% 30.13 in 10.0 mi NW 13.8 mph - N/A   Clear
5:55 PM 44.6 °F 38.4 °F 24.8 °F 46% 30.12 in 10.0 mi NW 12.7 mph - N/A   Clear
6:15 PM 42.8 °F 37.0 °F 24.8 °F 49% 30.12 in 10.0 mi NW 10.4 mph - N/A   Clear
6:35 PM 41.0 °F 35.8 °F 24.8 °F 53% 30.12 in 10.0 mi NW 8.1 mph - N/A   Clear
6:55 PM 39.2 °F 33.0 °F 24.8 °F 56% 30.13 in 10.0 mi NW 9.2 mph - N/A   Clear
7:15 PM 39.2 °F 35.0 °F 24.8 °F 56% 30.13 in 10.0 mi NNW 5.8 mph - N/A   Clear
7:35 PM 35.6 °F 32.8 °F 23.0 °F 60% 30.13 in 10.0 mi NNW 3.5 mph - N/A   Clear
7:55 PM 35.6 °F 31.7 °F 24.8 °F 65% 30.13 in 10.0 mi NNW 4.6 mph - N/A   Clear
8:15 PM 35.6 °F - 23.0 °F 60% 30.12 in 8.0 mi Calm Calm - N/A   Clear
8:35 PM 35.6 °F - 24.8 °F 65% 30.12 in 10.0 mi Calm Calm - N/A   Clear
8:55 PM 35.6 °F 30.7 °F 23.0 °F 60% 30.12 in 9.0 mi WNW 5.8 mph - N/A   Clear
9:15 PM 33.8 °F 29.6 °F 23.0 °F 65% 30.13 in 5.0 mi WNW 4.6 mph - N/A   Clear
9:35 PM 33.8 °F 29.6 °F 24.8 °F 70% 30.12 in 10.0 mi West 4.6 mph - N/A   Clear
9:55 PM 33.8 °F 28.6 °F 24.8 °F 70% 30.11 in 10.0 mi WSW 5.8 mph - N/A   Clear
10:15 PM 33.8 °F 27.7 °F 23.0 °F 65% 30.10 in 10.0 mi SW 6.9 mph - N/A   Clear
10:35 PM 32.0 °F 27.5 °F 24.8 °F 75% 30.10 in 10.0 mi SW 4.6 mph - N/A   Clear
10:55 PM 32.0 °F 25.6 °F 24.8 °F 75% 30.10 in 10.0 mi WSW 6.9 mph - N/A   Clear
11:15 PM 30.2 °F 24.3 °F 23.0 °F 75% 30.09 in 10.0 mi WSW 5.8 mph - N/A   Clear
11:35 PM 30.2 °F - 23.0 °F 75% 30.09 in 10.0 mi Calm Calm - N/A   Clear
11:55 PM 30.2 °F 23.4 °F 23.0 °F 75% 30.08 in 10.0 mi SW 6.9 mph - N/A   Clear